EW5526 Weather Reports


Display with metric or nautical units.
time (UTC)temp
F
wind
direction
speed
MPH
gust
MPH
rain 1hr
in
rain 24hr
in
rain mn
in
humidity
%
barometer
mb
20200705224100 66 332 1.0 4.0 0.00 0.00 0.00 86 1012.6
20200705223559 66 318 2.0 2.0 0.00 0.00 0.00 86 1012.6
20200705223059 66 306 1.0 3.0 0.00 0.00 0.00 86 1012.6
20200705222559 66 296 1.0 5.0 0.00 0.00 0.00 85 1012.7
20200705222059 66 319 3.0 5.0 0.00 0.00 0.00 85 1012.7
20200705221559 66 326 1.0 6.0 0.00 0.00 0.00 85 1012.7
20200705221059 66 353 2.0 6.0 0.00 0.00 0.00 85 1012.7
20200705220559 66 340 3.0 4.0 0.00 0.00 0.00 85 1012.7
20200705220100 67 287 0.0 6.0 0.00 0.00 0.00 85 1012.8
20200705215559 67 340 3.0 11.0 0.00 0.00 0.00 85 1012.6
20200705215059 67 322 8.0 11.0 0.00 0.00 0.00 84 1012.6
20200705214559 67 311 6.0 11.0 0.00 0.00 0.00 84 1012.6
20200705214058 67 299 8.0 8.0 0.00 0.00 0.00 84 1012.9
20200705213558 67 333 6.0 7.0 0.00 0.00 0.00 83 1012.9
20200705213059 67 347 1.0 6.0 0.00 0.00 0.00 83 1012.9
20200705212559 67 311 1.0 8.0 0.00 0.00 0.00 83 1012.8
20200705212058 67 330 3.0 9.0 0.00 0.00 0.00 83 1012.8
20200705211559 67 340 9.0 9.0 0.00 0.00 0.00 82 1012.8
20200705211059 67 336 5.0 8.0 0.00 0.00 0.00 82 1013.2
20200705210600 67 305 4.0 8.0 0.00 0.00 0.00 82 1013.2
20200705210059 67 333 3.0 5.0 0.00 0.00 0.00 82 1013.2
20200705205559 67 312 2.0 5.0 0.00 0.00 0.00 81 1013.2
20200705205058 67 295 2.0 6.0 0.00 0.00 0.00 81 1013.2
20200705204559 67 318 1.0 6.0 0.00 0.00 0.00 81 1013.2
20200705204101 68 308 0.0 3.0 0.00 0.00 0.00 81 1013.0
20200705203559 68 301 3.0 5.0 0.00 0.00 0.00 81 1013.0
20200705203059 68 320 3.0 5.0 0.00 0.00 0.00 80 1013.0
20200705202603 68 323 1.0 6.0 0.00 0.00 0.00 80 1012.7
20200705202059 68 322 2.0 6.0 0.00 0.00 0.00 80 1012.7
20200705201559 68 350 3.0 8.0 0.00 0.00 0.00 79 1012.7
20200705201059 68 289 3.0 16.0 0.00 0.00 0.00 79 1012.6
20200705200558 68 309 8.0 16.0 0.00 0.00 0.00 79 1012.6
20200705200059 68 305 8.0 17.0 0.00 0.00 0.00 78 1012.6
20200705195559 68 326 17.0 17.0 0.00 0.00 0.00 76 1012.4
20200705195059 68 346 10.0 13.0 0.00 0.00 0.00 75 1012.4
20200705194559 68 353 4.0 10.0 0.00 0.00 0.00 74 1012.4
20200705194100 69 333 10.0 11.0 0.00 0.00 0.00 74 1012.4
20200705193559 69 316 7.0 11.0 0.00 0.00 0.00 74 1012.4
20200705193100 69 320 2.0 10.0 0.00 0.00 0.00 74 1012.4
20200705192559 69 16 6.0 11.0 0.00 0.00 0.00 75 1012.4
20200705192059 69 306 6.0 11.0 0.00 0.00 0.00 76 1012.4
20200705191559 69 320 6.0 9.0 0.00 0.00 0.00 76 1012.4
20200705191059 69 305 5.0 7.0 0.00 0.00 0.00 77 1012.6
20200705190559 69 299 5.0 10.0 0.00 0.00 0.00 78 1012.6
20200705190059 69 289 6.0 12.0 0.00 0.00 0.00 78 1012.6
20200705185601 69 323 6.0 12.0 0.00 0.00 0.00 76 1012.7
20200705185059 70 329 8.0 8.0 0.00 0.00 0.00 75 1012.7
20200705184559 70 342 3.0 6.0 0.00 0.00 0.00 74 1012.7
20200705184058 70 359 1.0 4.0 0.00 0.00 0.00 73 1012.6
20200705183559 70 354 1.0 7.0 0.00 0.00 0.00 70 1012.6
20200705183059 70 288 2.0 13.0 0.00 0.00 0.00 70 1012.6
20200705182559 71 318 11.0 13.0 0.00 0.00 0.00 69 1012.7
20200705182059 71 318 10.0 10.0 0.00 0.00 0.00 68 1012.7
20200705181559 71 291 7.0 9.0 0.00 0.00 0.00 67 1012.7
20200705181059 71 333 6.0 9.0 0.00 0.00 0.00 66 1012.7
20200705180559 72 319 5.0 14.0 0.00 0.00 0.00 65 1012.7
20200705180105 72 281 6.0 14.0 0.00 0.00 0.00 64 1012.7
20200705175559 72 295 8.0 13.0 0.00 0.00 0.00 63 1012.4
20200705175059 72 296 12.0 13.0 0.00 0.00 0.00 61 1012.4
20200705174559 73 141 2.0 12.0 0.00 0.00 0.00 61 1012.5
20200705174059 73 0 3.0 12.0 0.00 0.00 0.00 61 1012.4
20200705173559 73 346 7.0 13.0 0.00 0.00 0.00 60 1012.4
20200705173059 73 330 4.0 13.0 0.00 0.00 0.00 60 1012.4
20200705172558 73 315 10.0 12.0 0.00 0.00 0.00 61 1012.3
20200705172059 74 275 6.0 15.0 0.00 0.00 0.00 62 1012.3
20200705171559 74 356 4.0 15.0 0.00 0.00 0.00 62 1012.3
20200705171058 74 306 8.0 13.0 0.00 0.00 0.00 61 1012.5
20200705170559 74 272 4.0 12.0 0.00 0.00 0.00 60 1012.5
20200705170059 74 280 4.0 13.0 0.00 0.00 0.00 60 1012.5
20200705165558 75 320 6.0 14.0 0.00 0.00 0.00 59 1012.3
20200705165100 75 305 5.0 14.0 0.00 0.00 0.00 59 1012.3
20200705164559 75 264 12.0 13.0 0.00 0.00 0.00 58 1012.3
20200705164132 75 4 1.0 12.0 0.00 0.00 0.00 57 1012.2
20200705163559 76 335 7.0 12.0 0.00 0.00 0.00 56 1012.3
20200705163059 76 330 2.0 18.0 0.00 0.00 0.00 57 1012.3
20200705162559 76 339 9.0 18.0 0.00 0.00 0.00 55 1012.4
20200705162058 76 313 4.0 12.0 0.00 0.00 0.00 55 1012.4
20200705161559 76 315 11.0 13.0 0.00 0.00 0.00 55 1012.4
20200705161059 76 275 3.0 13.0 0.00 0.00 0.00 53 1012.5
20200705160559 77 326 6.0 11.0 0.00 0.00 0.00 53 1012.5
20200705160058 77 333 7.0 11.0 0.00 0.00 0.00 54 1012.5
20200705155559 76 237 7.0 11.0 0.00 0.00 0.00 53 1012.6
20200705155058 76 335 9.0 14.0 0.00 0.00 0.00 55 1012.6
20200705154559 77 299 10.0 14.0 0.00 0.00 0.00 54 1012.7
20200705154059 77 319 7.0 11.0 0.00 0.00 0.00 55 1012.7
20200705153559 77 56 3.0 13.0 0.00 0.00 0.00 55 1012.7
20200705153107 77 323 8.0 14.0 0.00 0.00 0.00 54 1012.7
20200705152559 77 270 3.0 14.0 0.00 0.00 0.00 54 1012.7
20200705152100 77 326 9.0 16.0 0.00 0.00 0.00 53 1012.7
20200705151601 78 359 13.0 16.0 0.00 0.00 0.00 53 1012.7
20200705151059 78 353 10.0 14.0 0.00 0.00 0.00 52 1012.9
20200705150559 78 347 7.0 14.0 0.00 0.00 0.00 53 1012.9
20200705150117 78 304 14.0 14.0 0.00 0.00 0.00 53 1012.9
20200705145558 78 296 12.0 17.0 0.00 0.00 0.00 52 1012.9
20200705145059 78 272 5.0 17.0 0.00 0.00 0.00 53 1012.9
20200705144559 77 306 10.0 19.0 0.00 0.00 0.00 55 1012.9
20200705144059 77 285 13.0 19.0 0.00 0.00 0.00 55 1012.9
20200705143559 78 359 7.0 13.0 0.00 0.00 0.00 54 1012.9
20200705143059 78 24 5.0 17.0 0.00 0.00 0.00 54 1012.9
20200705142559 78 313 10.0 20.0 0.00 0.00 0.00 51 1013.0
20200705142059 78 336 3.0 20.0 0.00 0.00 0.00 52 1013.0
20200705141558 77 0 5.0 17.0 0.00 0.00 0.00 53 1013.0
20200705141059 76 21 7.0 16.0 0.00 0.00 0.00 62 1012.9
20200705140559 76 309 4.0 16.0 0.00 0.00 0.00 63 1012.9
20200705140059 76 318 12.0 13.0 0.00 0.00 0.00 62 1012.9
20200705135600 76 7 6.0 13.0 0.00 0.00 0.00 59 1012.9
20200705135059 76 306 9.0 17.0 0.00 0.00 0.00 61 1012.9
20200705134559 77 299 11.0 17.0 0.00 0.00 0.00 61 1013.0
20200705134102 77 295 9.0 13.0 0.00 0.00 0.00 61 1013.4
20200705133559 77 21 6.0 13.0 0.00 0.00 0.00 61 1013.4
20200705133059 77 320 12.0 13.0 0.00 0.00 0.00 61 1013.4
20200705132558 76 311 11.0 17.0 0.00 0.00 0.00 61 1013.2
20200705132058 77 346 5.0 17.0 0.00 0.00 0.00 60 1013.3
20200705131559 77 342 6.0 11.0 0.00 0.00 0.00 60 1013.3
20200705131059 77 347 5.0 11.0 0.00 0.00 0.00 61 1013.5
20200705130600 77 322 8.0 11.0 0.00 0.00 0.00 61 1013.5
20200705130101 77 287 9.0 14.0 0.00 0.00 0.00 61 1013.5
20200705125558 77 287 7.0 19.0 0.00 0.00 0.00 59 1013.6
20200705125059 78 291 10.0 19.0 0.00 0.00 0.00 58 1013.6
20200705124559 78 323 9.0 16.0 0.00 0.00 0.00 55 1013.6
20200705124059 78 0 5.0 17.0 0.00 0.00 0.00 55 1013.8
20200705123600 78 0 10.0 18.0 0.00 0.00 0.00 55 1013.8
20200705123059 78 336 13.0 18.0 0.00 0.00 0.00 53 1013.8
20200705122558 77 340 12.0 15.0 0.00 0.00 0.00 54 1013.9
20200705122059 77 349 6.0 14.0 0.00 0.00 0.00 53 1013.9
20200705121559 78 316 4.0 14.0 0.00 0.00 0.00 53 1013.9
20200705121058 78 337 6.0 14.0 0.00 0.00 0.00 55 1014.0
20200705120559 78 278 8.0 14.0 0.00 0.00 0.00 54 1014.0
20200705120059 78 0 6.0 14.0 0.00 0.00 0.00 53 1014.0
20200705115559 78 319 5.0 13.0 0.00 0.00 0.00 52 1014.1
20200705115100 77 11 3.0 13.0 0.00 0.00 0.00 52 1014.0
20200705114559 78 301 7.0 14.0 0.00 0.00 0.00 52 1014.1
20200705114059 78 344 5.0 17.0 0.00 0.00 0.00 53 1014.3
20200705113559 78 335 6.0 17.0 0.00 0.00 0.00 51 1014.2
20200705113101 78 323 12.0 13.0 0.00 0.00 0.00 52 1014.3
20200705112600 77 0 3.0 12.0 0.00 0.00 0.00 54 1014.2
20200705112059 77 328 10.0 12.0 0.00 0.00 0.00 54 1014.2
20200705111601 78 320 10.0 12.0 0.00 0.00 0.00 54 1014.3
20200705111059 78 319 8.0 11.0 0.00 0.00 0.00 52 1014.5
20200705110559 77 294 5.0 13.0 0.00 0.00 0.00 52 1014.3
20200705110059 77 6 3.0 13.0 0.00 0.00 0.00 54 1014.4
20200705105558 78 339 5.0 12.0 0.00 0.00 0.00 53 1014.6
20200705105059 78 299 6.0 16.0 0.00 0.00 0.00 52 1014.6
20200705104558 78 278 7.0 16.0 0.00 0.00 0.00 53 1014.6
20200705104058 78 320 4.0 12.0 0.00 0.00 0.00 54 1014.6
20200705103559 78 330 5.0 12.0 0.00 0.00 0.00 54 1014.6
20200705103059 78 23 3.0 11.0 0.00 0.00 0.00 53 1014.6
20200705102600 77 23 7.0 11.0 0.00 0.00 0.00 52 1014.4
20200705102059 78 13 5.0 9.0 0.00 0.00 0.00 50 1014.5
20200705101558 77 340 6.0 12.0 0.00 0.00 0.00 51 1014.4
20200705101059 77 339 6.0 12.0 0.00 0.00 0.00 49 1014.4
20200705100558 77 295 8.0 12.0 0.00 0.00 0.00 52 1014.4
20200705100059 77 323 9.0 13.0 0.00 0.00 0.00 49 1014.4
20200705095558 77 0 6.0 13.0 0.00 0.00 0.00 49 1014.4
20200705095059 77 356 8.0 16.0 0.00 0.00 0.00 50 1014.4
20200705094559 76 316 16.0 16.0 0.00 0.00 0.00 52 1014.4
20200705094101 76 336 8.0 10.0 0.00 0.00 0.00 54 1014.5
20200705093559 76 335 5.0 10.0 0.00 0.00 0.00 54 1014.5
20200705093058 76 0 7.0 10.0 0.00 0.00 0.00 52 1014.5
20200705092559 76 325 2.0 10.0 0.00 0.00 0.00 54 1014.5
20200705092059 76 304 5.0 15.0 0.00 0.00 0.00 57 1014.6
20200705091559 75 0 6.0 15.0 0.00 0.00 0.00 56 1014.5
20200705091101 75 354 7.0 11.0 0.00 0.00 0.00 59 1014.5
20200705090559 75 301 7.0 10.0 0.00 0.00 0.00 59 1014.5
20200705090059 75 289 5.0 13.0 0.00 0.00 0.00 58 1014.5
20200705085559 75 339 13.0 13.0 0.00 0.00 0.00 58 1014.5
20200705085059 75 352 5.0 16.0 0.00 0.00 0.00 61 1014.5
20200705084600 75 66 1.0 17.0 0.00 0.00 0.00 61 1014.5
20200705084058 75 336 4.0 17.0 0.00 0.00 0.00 61 1014.4
20200705083559 74 0 5.0 11.0 0.00 0.00 0.00 63 1014.4
20200705083059 74 342 11.0 11.0 0.00 0.00 0.00 62 1014.4
20200705082558 74 298 5.0 9.0 0.00 0.00 0.00 62 1014.5
20200705082059 73 320 3.0 7.0 0.00 0.00 0.00 62 1014.4
20200705081600 73 356 6.0 12.0 0.00 0.00 0.00 63 1014.4
20200705081108 73 359 6.0 13.0 0.00 0.00 0.00 64 1014.4
20200705080612 73 292 6.0 13.0 0.00 0.00 0.00 65 1014.4
20200705080049 73 332 8.0 11.0 0.00 0.00 0.00 65 1014.4
20200705075554 73 325 8.0 11.0 0.00 0.00 0.00 65 1014.5
20200705075059 73 0 4.0 11.0 0.00 0.00 0.00 64 1014.5
20200705074605 73 308 6.0 11.0 0.00 0.00 0.00 64 1014.5
20200705074111 73 265 6.0 11.0 0.00 0.00 0.00 64 1014.5
20200705073547 73 319 5.0 13.0 0.00 0.00 0.00 64 1014.5
20200705073054 72 13 13.0 13.0 0.00 0.00 0.00 64 1014.4
20200705072600 72 353 9.0 9.0 0.00 0.00 0.00 67 1014.4
20200705072109 72 299 5.0 13.0 0.00 0.00 0.00 69 1014.4
20200705071612 71 326 10.0 13.0 0.00 0.00 0.00 69 1014.4
20200705071050 71 323 2.0 11.0 0.00 0.00 0.00 72 1014.4
20200705070550 71 298 6.0 11.0 0.00 0.00 0.00 71 1014.4
20200705070050 71 0 7.0 9.0 0.00 0.00 0.00 72 1014.4
20200705065550 71 16 4.0 10.0 0.00 0.00 0.00 74 1014.3
20200705065050 71 0 7.0 10.0 0.00 0.00 0.00 74 1014.3
20200705064550 70 326 6.0 13.0 0.00 0.00 0.00 75 1014.3
20200705064050 70 296 10.0 13.0 0.00 0.00 0.00 75 1014.2
20200705063551 70 349 4.0 13.0 0.00 0.00 0.00 76 1014.2
20200705063050 70 319 3.0 12.0 0.00 0.00 0.00 77 1014.2
20200705062550 70 294 8.0 11.0 0.00 0.00 0.00 78 1014.2
20200705062050 69 302 6.0 13.0 0.00 0.00 0.00 79 1014.1
20200705061550 69 328 8.0 14.0 0.00 0.00 0.00 79 1014.1
20200705061052 69 309 12.0 14.0 0.00 0.00 0.00 80 1013.8
20200705060550 69 344 7.0 10.0 0.00 0.00 0.00 81 1013.8
20200705060050 69 308 8.0 17.0 0.00 0.00 0.00 81 1013.8
20200705055550 68 316 15.0 17.0 0.00 0.00 0.00 81 1013.8
20200705055052 68 311 12.0 14.0 0.00 0.00 0.00 81 1013.8
20200705054550 68 328 10.0 13.0 0.00 0.00 0.00 82 1013.8
20200705054050 67 359 9.0 13.0 0.00 0.00 0.00 82 1013.6
20200705053550 67 344 6.0 13.0 0.00 0.00 0.00 82 1013.6
20200705053050 67 318 8.0 13.0 0.00 0.00 0.00 82 1013.6
20200705052550 67 295 9.0 13.0 0.00 0.00 0.00 83 1013.7
20200705052050 67 335 10.0 12.0 0.00 0.00 0.00 83 1013.7
20200705051550 66 322 7.0 12.0 0.00 0.00 0.00 83 1013.7
20200705051050 66 275 6.0 12.0 0.00 0.00 0.00 83 1013.7
20200705050550 66 350 7.0 12.0 0.00 0.00 0.00 83 1013.7
20200705050050 66 299 3.0 11.0 0.00 0.00 0.00 84 1013.7
20200705045550 66 329 3.0 11.0 0.00 0.00 0.00 83 1013.8
20200705045050 66 0 6.0 10.0 0.00 0.00 0.00 83 1013.8
20200705044551 66 329 6.0 12.0 0.00 0.00 0.00 84 1013.8
20200705044050 66 309 6.0 12.0 0.00 0.00 0.00 83 1013.7
20200705043550 66 319 5.0 12.0 0.00 0.00 0.00 83 1013.7
20200705043050 66 0 6.0 11.0 0.00 0.00 0.00 83 1013.7
20200705042550 65 320 6.0 12.0 0.00 0.00 0.00 84 1013.7
20200705042050 65 330 9.0 12.0 0.00 0.00 0.00 84 1013.7
20200705041550 65 309 8.0 12.0 0.00 0.00 0.00 84 1013.7
20200705041050 65 0 7.0 11.0 0.00 0.00 0.00 84 1013.7
20200705040550 65 311 11.0 11.0 0.00 0.00 0.00 84 1013.7
20200705040052 65 311 3.0 11.0 0.00 0.00 0.00 83 1013.7
20200705035551 65 350 8.0 11.0 0.00 0.00 0.00 83 1013.7
20200705035050 65 302 3.0 11.0 0.00 0.00 0.00 83 1013.7
20200705034550 65 313 7.0 10.0 0.00 0.00 0.00 83 1013.7
20200705034050 65 325 5.0 10.0 0.00 0.00 0.00 83 1013.5
20200705033550 65 315 5.0 11.0 0.00 0.00 0.00 83 1013.5
20200705033050 65 309 3.0 11.0 0.00 0.00 0.00 84 1013.5
20200705032550 65 328 11.0 12.0 0.00 0.00 0.00 85 1013.3
20200705032052 65 313 8.0 12.0 0.00 0.00 0.00 85 1013.3
20200705031550 65 299 9.0 12.0 0.00 0.00 0.00 85 1013.3
20200705031050 65 337 10.0 12.0 0.00 0.00 0.00 85 1013.2
20200705030550 65 322 6.0 12.0 0.00 0.00 0.00 84 1013.2
20200705030050 65 343 11.0 14.0 0.00 0.00 0.00 84 1013.2
20200705025550 65 309 11.0 14.0 0.00 0.00 0.00 84 1013.3
20200705025051 65 308 5.0 14.0 0.00 0.00 0.00 84 1013.3
20200705024550 65 330 8.0 14.0 0.00 0.00 0.00 84 1013.3
20200705024050 65 325 7.0 13.0 0.00 0.00 0.00 84 1013.5
20200705023550 65 309 8.0 11.0 0.00 0.00 0.00 83 1013.5
20200705023050 65 342 7.0 11.0 0.00 0.00 0.00 83 1013.5
20200705022550 65 320 5.0 11.0 0.00 0.00 0.00 83 1013.5
20200705022050 65 335 6.0 10.0 0.00 0.00 0.00 83 1013.5
20200705021550 65 291 7.0 11.0 0.00 0.00 0.00 83 1013.5
20200705021050 65 305 7.0 11.0 0.00 0.00 0.00 83 1013.4
20200705020550 65 349 4.0 10.0 0.00 0.00 0.00 82 1013.4
20200705020050 65 282 7.0 10.0 0.00 0.00 0.00 82 1013.4
20200705015550 65 337 4.0 13.0 0.00 0.00 0.00 82 1013.4
20200705015051 65 337 7.0 16.0 0.00 0.00 0.00 81 1013.4
20200705014550 65 325 4.0 16.0 0.00 0.00 0.00 81 1013.4
20200705014050 66 318 7.0 10.0 0.00 0.00 0.00 80 1013.7
20200705013554 66 328 3.0 16.0 0.00 0.00 0.00 80 1013.7
20200705013050 65 305 8.0 16.0 0.00 0.00 0.00 80 1013.6
20200705012550 65 308 10.0 13.0 0.00 0.00 0.00 80 1013.8
20200705012050 65 349 10.0 13.0 0.00 0.00 0.00 80 1013.8
20200705011550 65 0 7.0 13.0 0.00 0.00 0.00 79 1013.8
20200705011050 65 328 8.0 13.0 0.00 0.00 0.00 79 1013.9
20200705010550 65 316 7.0 13.0 0.00 0.00 0.00 79 1013.9
20200705010050 65 302 12.0 12.0 0.00 0.00 0.00 79 1013.9
20200705005550 65 328 6.0 13.0 0.00 0.00 0.00 79 1014.0
20200705005052 65 295 8.0 13.0 0.00 0.00 0.00 79 1014.0
20200705004554 65 315 10.0 11.0 0.00 0.00 0.00 79 1014.0
20200705004052 65 288 6.0 9.0 0.00 0.00 0.00 79 1014.1
20200705003550 65 336 7.0 10.0 0.00 0.00 0.00 80 1014.1
20200705003050 65 318 5.0 10.0 0.00 0.00 0.00 79 1014.1
20200705002551 65 320 7.0 10.0 0.00 0.00 0.00 79 1014.3
20200705002051 65 330 5.0 10.0 0.00 0.00 0.00 79 1014.3
20200705001550 65 302 7.0 9.0 0.00 0.00 0.00 79 1014.3
20200705001050 65 312 6.0 7.0 0.00 0.00 0.00 79 1014.3
20200705000550 65 304 7.0 7.0 0.00 0.00 0.00 78 1014.2
20200705000050 66 326 4.0 7.0 0.00 0.00 0.00 78 1014.4
20200704235602 66 325 7.0 7.0 0.00 0.00 0.00 78 1014.4
20200704235122 66 325 6.0 6.0 0.00 0.00 0.00 78 1014.4
20200704234550 66 265 3.0 6.0 0.00 0.00 0.00 78 1014.4
20200704234054 66 343 3.0 8.0 0.00 0.00 0.00 79 1014.6
20200704233550 66 291 5.0 10.0 0.00 0.00 0.00 79 1014.6
20200704233050 66 326 6.0 10.0 0.00 0.00 0.00 79 1014.6
20200704232550 66 315 7.0 8.0 0.00 0.00 0.00 79 1014.6
20200704232050 66 322 7.0 11.0 0.00 0.00 0.00 79 1014.6
20200704231551 66 312 10.0 11.0 0.00 0.00 0.00 79 1014.6
20200704231050 66 304 3.0 12.0 0.00 0.00 0.00 79 1014.5
20200704230550 66 339 4.0 12.0 0.00 0.00 0.00 79 1014.5
20200704230050 66 316 8.0 12.0 0.00 0.00 0.00 79 1014.5
20200704225550 66 346 7.0 12.0 0.00 0.00 0.00 79 1014.7
20200704225050 65 342 8.0 11.0 0.00 0.00 0.00 79 1014.6
20200704224550 65 319 7.0 10.0 0.00 0.00 0.00 79 1014.6